CZ-4C DEB, 43628

Orbit data source: Space-Track

CZ-4C DEB, 43628 is space debris in SSO originally from a launch on Wed, 20 Nov 2013 UTC launched from the Taiyaun Space Center, China (TSC). Debris objects in space refer to the collection of defunct objects orbiting the Earth. Examples of debris include non-operational satellites, rocket bodies, and fragments generated from explosions, collisions, or faulty payload assembly.

Loading next visibility...
Identifier
43628, 2013-065E
Orbit
SSO
Country
Flag of CNCN / PRC
Related business
Manufacturer
SAST
Mission
Spacecraft
Bus & Motor
Unknown
Mass
Unknown
Launch date (UTC)
2013-11-20 (13 years ago)
Launch vehicle
Unknown
Launch site
Taiyaun Space Center, China (TSC)
Object type
Payload
Rocket body
Debris
Shape & HBR
Unknown shape, 0.1 m
Radar Cross Section
Small (<0.1 m²)

Expand to show TLE details & history
Last TLE update: 3 days ago

TLE from 3 days ago
0 CZ-4C DEB
1 43628U 13065E   26170.92269800  .00009769  00000-0  22270-2 0  9996
2 43628 100.5224 163.3128 0129823 139.4571 221.6375 14.51008098404536
Epoch: 2026-06-19T22:08Z
TLE epoch observation values (Epoch: 2026-06-19T22:08:41.107Z)
Latitude
0.00003°
Longitude
-77.0032°
Altitude
794.678 km
Speed
7.42 km/s
True Right ascension
10h 53m 15s
True Declination
0° 00' 00"
Sunlit
Object was in daylight at epoch
Visualization orbit readout
Latitude
Unknown
Longitude
Unknown
Altitude
Unknown
Speed
Unknown
Apparent Right ascension
Unknown
Apparent Declination
Unknown
Sunlit
N/A
Visualization observer readout
Local Sidereal Time
21:27:12
Azimuth
Unknown
Elevation
Unknown
Doppler factor
Unknown
Orbital elements
Apogee altitude
811.716 km
Perigee altitude
627.427 km
Semi-major axis
7,097.708 km
Eccentricity
0.01298
Inclination
100.5224°
RAAN
163.3128°
Arg. of periapsis
139.4571°
True anomaly
220.66097°
Mean anomaly
221.6375°
Eccentric anomaly
221.14805°
Mean motion
3.62966 °/min
Orbital period
99.18 mins
BSTAR
0.002227
Loading maneuver chart data...
Computing Atmospheric mass density...
Loading historical data...
Loading historical data...
Loading historical data...
Loading historical data...
Loading historical data...
Loading historical data...
Loading historical data...

Documentation

Showing up to 5 results
|